Overview Statistics Trail Chart Weather Telemetry Raw packets
 

This is the latest recevied weather packets stored in our database for station/object K7SKM. If no packets are shown the sender has not sent any weather packets the latest 10 day(s).

<< 88 89 90 91 92 93 94 >>
Time Temp. Humidity Pressure Rain* Wind** Luminosity Snow
1788027860 16.11° C 80% 1022.4 hPa 0 mm - 86 W/m² -
1788027555 15.56° C 82% 1022.3 hPa 0 mm - 88 W/m² -
1788027255 15.56° C 82% 1022.3 hPa 0 mm - 90 W/m² -
1788026954 15° C 81% 1022.4 hPa 0 mm - 80 W/m² -
1788026649 15.56° C 81% 1022 hPa 0 mm - 80 W/m² -
1788026345 15.56° C 80% 1022.1 hPa 0 mm - 80 W/m² -
1788026041 15° C 81% 1022.3 hPa 0 mm - 70 W/m² -
1788025738 15° C 77% 1022.1 hPa 0 mm - 93 W/m² -
1788025438 15° C 80% 1022.2 hPa 0 mm - 127 W/m² -
1788025128 15.56° C 85% 1022.2 hPa 0 mm - 125 W/m² -
1788024827 15° C 83% 1022.1 hPa 0 mm - 163 W/m² -
1788024524 15.56° C 87% 1022.1 hPa 0 mm - 309 W/m² -
1788024223 15° C 88% 1022.2 hPa 0 mm - 283 W/m² -
1788023919 13.89° C 87% 1022.2 hPa 0 mm - 151 W/m² -
1788023614 13.89° C 88% 1022.2 hPa 0 mm - 106 W/m² -
1788023310 15° C 89% 1022.2 hPa 0 mm - 111 W/m² -
1788023005 14.44° C 89% 1022.3 hPa 0 mm - 117 W/m² -
1788022702 14.44° C 91% 1022.1 hPa 0 mm - 153 W/m² -
1788022401 13.89° C 91% 1022.1 hPa 0 mm - 101 W/m² -
1788022101 13.89° C 91% 1022.1 hPa 0 mm - 83 W/m² -
1788021800 13.89° C 91% 1022.2 hPa 0 mm - 76 W/m² -
1788021494 13.89° C 91% 1022.1 hPa 0 mm - 78 W/m² -
1788021188 13.33° C 90% 1022.1 hPa 0 mm - 76 W/m² -
1788020883 13.33° C 90% 1022 hPa 0 mm - 47 W/m² -
1788020578 13.33° C 90% 1022.1 hPa 0 mm - 32 W/m² -

* Rain latest hour (hover to see other rain measurements)
** Current wind speed in m/s (hover to see current wind gust speed)